CAPE
753 1001 1070 1226 1254 1205 1276 1198 1351 1405 1593 1379 997 873 929 761 132 0 37 141 77 94 338 338 417 278 139 397 144 59 177 161 189 160 102 107 199 221 235 125 73 112 144
585 1225 1098 1129 1341 1271 1208 1252 1038 1221 1371 1313 1097 987 903 844 181 63 48 66 176 191 340 527 497 702 308 199 225 225 137 0 0 0 0 0 0 80 75 50 95 87 10
453 1070 1172 1010 1079 1246 1226 1004 955 1052 1009 1231 1109 1211 1108 1058 394 106 262 222 322 350 511 567 494 741 277 26 112 118 14 0 0 0 0 0 0 0 0 0 0 2 4
321 718 1143 1077 800 967 997 844 817 852 954 910 863 941 952 1013 785 457 247 117 402 607 419 661 710 583 26 0 2 30 0 0 0 0 0 0 0 0 0 0 0 0 0
200 438 997 1290 735 603 748 678 847 907 825 916 960 803 759 966 986 875 595 283 238 465 377 544 551 197 0 0 13 0 0 0 0 0 0 0 0 0 0 0 0 1 0
38 238 890 1123 818 584 567 659 649 897 892 903 991 841 661 755 546 835 467 229 102 576 426 344 462 130 1 0 0 0 0 0 0 0 0 0 0 0 1 1 0 0 0
0 47 263 916 856 703 593 571 604 519 453 684 888 842 707 762 812 740 537 459 387 439 457 319 334 156 12 0 0 0 0 0 0 0 0 0 0 0 0 0 0 1 1
0 0 3 173 466 645 598 589 563 477 451 555 598 571 611 681 689 602 469 354 388 299 477 396 206 80 0 0 0 0 0 0 0 0 0 0 0 0 0 0 0 0 1
0 0 0 0 87 402 492 439 390 381 458 536 464 423 495 465 537 655 566 358 347 400 490 391 338 134 0 0 0 0 0 0 0 0 0 0 0 0 0 0 0 0 1
0 0 0 0 0 0 262 493 478 431 283 279 261 235 275 280 355 539 480 406 291 305 350 347 353 194 0 0 0 0 0 0 0 0 0 0 0 0 0 0 0 1 2
0 0 0 0 0 0 0 242 435 467 292 303 340 381 319 241 200 243 249 213 225 176 239 322 263 145 1 0 0 0 0 0 0 0 0 0 0 0 0 0 0 4 4
0 0 0 0 0 0 0 0 158 498 324 119 42 18 10 10 22 57 59 141 142 205 155 227 285 111 8 0 0 0 0 0 0 0 0 0 0 0 0 0 0 2 5
0 0 0 0 0 0 0 0 0 17 145 200 106 61 49 60 46 36 33 130 240 183 177 219 185 115 45 7 0 0 0 0 0 0 0 0 0 0 0 0 0 0 1
0 0 0 0 0 0 0 0 0 0 8 120 97 49 18 71 121 142 142 131 123 177 127 149 100 66 59 21 1 0 0 0 0 0 0 0 0 0 0 0 0 0 0
0 0 0 0 0 0 0 0 0 0 0 8 64 1 0 12 53 83 110 144 211 252 207 133 113 78 56 32 13 0 0 0 0 0 0 0 0 1 0 0 36 57 2
0 0 0 0 0 0 0 0 0 0 0 3 4 0 0 0 19 28 18 39 91 104 225 169 150 132 95 83 44 21 0 0 0 0 0 0 0 0 0 2 14 144 157
0 0 0 0 0 0 0 0 0 0 0 0 2 3 0 0 0 22 30 41 49 50 45 22 80 130 124 143 112 125 76 57 0 0 0 0 0 0 0 3 4 48 302
0 0 0 0 0 0 0 0 0 0 0 0 0 20 34 10 5 32 48 77 79 58 33 16 37 88 88 93 108 104 106 86 55 2 0 0 0 0 0 0 0 3 44
0 0 0 0 0 0 0 0 0 0 0 0 0 14 94 92 113 70 80 50 59 42 40 49 60 81 86 83 81 100 81 76 68 60 13 0 0 0 0 0 0 0 0
0 0 0 0 0 0 0 0 0 0 0 0 0 73 130 156 89 68 33 25 17 22 32 55 77 98 103 100 78 41 34 44 50 36 27 1 0 0 0 0 0 0 0
0 0 0 0 1 0 0 0 0 0 0 0 0 53 133 135 110 30 34 22 34 50 56 68 72 74 84 115 118 65 40 34 25 37 35 29 17 0 0 0 0 0 0
0 0 1 2 0 0 2 1 1 1 0 14 23 61 40 25 1 2 0 9 9 29 65 65 65 53 54 62 87 95 5 2 0 0 41 56 3 2 0 0 0 0 0
0 0 0 2 1 1 1 1 0 4 3 8 15 45 4 3 3 1 0 0 0 0 0 3 15 41 36 42 79 131 44 2 2 0 0 45 46 28 1 0 0 0 0
0 0 0 0 0 0 0 2 2 1 0 1 1 1 4 3 1 0 0 0 0 0 0 0 1 1 2 4 39 26 57 55 19 8 5 11 25 25 4 0 0 0 0
0 0 0 0 0 0 0 0 3 0 1 2 4 1 0 4 0 0 0 0 0 0 0 1 0 0 1 3 9 30 28 39 58 87 14 12 16 12 7 3 0 0 0
0 0 0 0 0 0 0 0 0 1 1 1 0 0 0 0 0 0 0 0 0 0 0 1 0 0 0 0 3 4 5 32 9 62 57 29 17 12 6 0 0 0 0
CIN
-25 -18 -21 -14 -17 -18 -8 -11 -6 -3 -0 -5 -18 -16 -11 -16 -205 -0 -328 -210 -253 -238 -112 -116 -110 -152 -207 -128 -222 -296 -223 -246 -221 -224 -258 -231 -147 -120 -89 -145 -189 -144 -117
-34 -12 -21 -19 -13 -10 -9 -8 -14 -7 -3 -2 -4 -7 -5 -4 -163 -247 -278 -265 -171 -158 -93 -66 -86 -62 -143 -182 -174 -172 -243 -0 -0 -0 -0 -0 -0 -236 -230 -226 -160 -162 -31
-59 -10 -7 -17 -14 -13 -9 -16 -14 -12 -10 -4 -5 -2 -3 -1 -62 -204 -116 -136 -92 -77 -54 -56 -70 -50 -152 -253 -223 -224 -180 -0 -0 -0 -0 -0 -0 -0 -0 -0 -0 -0 -0
-86 -30 -17 -13 -26 -17 -14 -23 -28 -21 -14 -10 -8 -4 -2 -1 -5 -38 -134 -209 -69 -18 -65 -37 -38 -51 -284 -0 -0 -294 -0 -0 -0 -0 -0 -0 -0 -0 -0 -0 -0 -0 -0
-145 -67 -26 -13 -21 -24 -20 -25 -14 -9 -13 -12 -11 -18 -11 -2 -2 -3 -6 -89 -112 -23 -69 -37 -61 -137 -0 -0 -207 -0 -0 -0 -0 -0 -0 -0 -0 -0 -0 -0 -0 -0 -0
-282 -108 -17 -3 -5 -24 -22 -16 -18 -7 -5 -6 -5 -10 -11 -6 -13 -2 -10 -94 -200 -3 -22 -64 -54 -162 -219 -0 -0 -0 -0 -0 -0 -0 -0 -0 -0 -0 -0 -0 -0 -0 -0
-0 -255 -79 -5 -2 -7 -13 -21 -19 -20 -18 -6 -4 -6 -6 -5 -3 -1 -12 -15 -21 -7 -9 -41 -65 -148 -307 -0 -0 -0 -0 -0 -0 -0 -0 -0 -0 -0 -0 -0 -0 -0 -0
-0 -0 -151 -102 -41 -10 -8 -9 -7 -16 -29 -24 -17 -13 -9 -7 -5 -5 -14 -22 -23 -29 -5 -10 -77 -208 -0 -0 -0 -0 -0 -0 -0 -0 -0 -0 -0 -0 -0 -0 -0 -0 -0
-0 -0 -0 -0 -124 -25 -14 -11 -13 -15 -12 -10 -17 -18 -17 -17 -11 -6 -7 -15 -16 -15 -8 -7 -17 -100 -0 -0 -0 -0 -0 -0 -0 -0 -0 -0 -0 -0 -0 -0 -0 -0 -0
-0 -0 -0 -0 -0 -0 -38 -17 -12 -10 -16 -10 -19 -45 -39 -33 -21 -8 -9 -21 -29 -18 -13 -8 -7 -49 -0 -0 -0 -0 -0 -0 -0 -0 -0 -0 -0 -0 -0 -0 -0 -0 -0
-0 -0 -0 -0 -0 -0 -0 -31 -22 -14 -17 -14 -19 -18 -22 -36 -54 -67 -52 -57 -43 -59 -44 -16 -10 -37 -121 -0 -0 -0 -0 -0 -0 -0 -0 -0 -0 -0 -0 -0 -0 -0 -0
-0 -0 -0 -0 -0 -0 -0 -0 -41 -23 -27 -58 -54 -76 -106 -114 -94 -76 -124 -69 -92 -63 -64 -39 -28 -37 -154 -0 -0 -0 -0 -0 -0 -0 -0 -0 -0 -0 -0 -0 -0 -0 -0
-0 -0 -0 -0 -0 -0 -0 -0 -0 -23 -45 -29 -47 -65 -78 -63 -81 -88 -72 -52 -38 -37 -51 -57 -68 -83 -126 -64 -0 -0 -0 -0 -0 -0 -0 -0 -0 -0 -0 -0 -0 -0 -0
-0 -0 -0 -0 -0 -0 -0 -0 -0 -0 -25 -19 -24 -42 -80 -57 -40 -29 -32 -70 -54 -60 -60 -32 -79 -44 -58 -69 -15 -0 -0 -0 -0 -0 -0 -0 -0 -0 -0 -0 -0 -0 -0
-0 -0 -0 -0 -0 -0 -0 -0 -0 -0 -0 -39 -20 -8 -0 -87 -68 -52 -32 -30 -28 -27 -22 -22 -21 -37 -50 -81 -100 -0 -0 -0 -0 -0 -0 -0 -0 -13 -0 -0 -18 -6 -2
-0 -0 -0 -0 -0 -0 -0 -0 -0 -0 -0 -21 -25 -1 -0 -0 -105 -107 -108 -80 -53 -36 -15 -28 -22 -23 -33 -32 -54 -74 -0 -0 -0 -0 -0 -0 -0 -0 -11 -36 -41 -25 -13
-0 -0 -0 -0 -0 -0 -0 -0 -0 -0 -0 -0 -28 -28 -0 -0 -6 -110 -112 -99 -87 -68 -50 -49 -34 -26 -24 -26 -30 -27 -40 -33 -0 -0 -0 -0 -0 -0 -0 -73 -68 -26 -1
-0 -0 -0 -0 -0 -0 -0 -0 -0 -0 -0 -0 -0 -38 -36 -33 -46 -89 -95 -84 -88 -76 -88 -80 -54 -27 -25 -23 -31 -32 -34 -44 -41 -5 -0 -0 -0 -38 -0 -0 -0 -25 -43
-0 -0 -0 -0 -0 -0 -0 -0 -0 -0 -0 -0 -0 -28 -33 -22 -18 -21 -47 -112 -119 -114 -97 -98 -79 -54 -44 -36 -33 -38 -40 -41 -36 -39 -32 -0 -0 -0 -0 -0 -0 -0 -0
-0 -0 -0 -0 -0 -0 -0 -0 -0 -0 -0 -0 -0 -10 -14 -21 -45 -25 -35 -121 -122 -97 -93 -89 -71 -55 -46 -51 -43 -43 -52 -67 -54 -45 -36 -12 -0 -0 -0 -0 -0 -0 -0
-0 -0 -0 -0 -0 -0 -0 -0 -0 -0 -0 -0 -0 -18 -24 -29 -34 -44 -64 -87 -76 -81 -92 -73 -72 -58 -58 -34 -13 -34 -44 -48 -45 -35 -39 -39 -32 -0 -0 -0 -0 -0 -0
-1 -0 -0 -0 -0 -0 -0 -0 -0 -10 -0 -6 -6 -30 -33 -30 -0 -0 -29 -104 -122 -132 -90 -82 -63 -55 -43 -46 -12 -7 -0 -1 -0 -0 -52 -32 -16 -13 -0 -0 -0 -0 -0
-0 -0 -0 -0 -0 -0 -0 -0 -0 -21 -20 -23 -43 -38 -0 -0 -0 -0 -0 -0 -0 -0 -0 -86 -122 -62 -39 -47 -12 -0 -1 -0 -3 -0 -0 -50 -56 -68 -18 -0 -0 -0 -0
-0 -0 -0 -0 -0 -0 -0 -0 -0 -0 -0 -0 -0 -0 -0 -0 -0 -0 -0 -0 -0 -0 -0 -0 -0 -0 -0 -12 -21 -12 -3 -1 -0 -0 -14 -21 -48 -65 -83 -0 -0 -0 -0
-0 -0 -0 -0 -0 -0 -0 -0 -0 -0 -0 -0 -0 -0 -0 -0 -0 -0 -0 -0 -0 -0 -0 -0 -0 -0 -0 -0 -2 -0 -1 -0 -3 -0 -0 -1 -11 -26 -91 -75 -0 -0 -0
-0 -0 -0 -0 -0 -0 -0 -0 -0 -0 -0 -0 -0 -0 -0 -0 -0 -0 -0 -0 -0 -0 -0 -0 -0 -0 -0 -0 -0 -0 -4 -0 -2 -0 -0 -0 -0 -15 -17 -3 -0 -0 -0
Wind_Speed
21 14 12 10 10 10 11 12 11 10 9 10 11 12 13 14 15 15 14 14 14 14 15 15 15 15 16 16 16 16 18 18 17 16 15 14 14 14 15 16 16 17 17
21 18 10 10 9 9 10 11 11 11 10 9 10 11 12 13 14 14 14 13 13 13 13 13 13 14 15 15 16 15 15 17 17 16 16 15 14 14 14 15 15 15 15
21 20 14 10 9 9 9 10 10 10 9 10 10 11 11 12 13 13 13 13 12 12 11 12 12 13 14 14 14 14 14 15 15 15 15 15 14 14 14 14 14 14 15
21 21 19 9 9 9 9 9 9 9 8 9 11 12 12 12 12 13 13 13 13 15 8 10 11 11 12 13 13 13 13 13 13 13 13 13 14 13 14 14 14 14 14
21 21 21 7 9 10 9 9 9 9 8 9 10 11 11 12 12 12 14 14 14 14 12 8 9 10 11 12 11 12 12 12 12 15 15 11 13 13 13 13 13 13 14
21 21 20 17 12 11 10 11 11 11 10 10 11 11 12 12 12 12 12 12 12 13 12 9 9 10 10 11 10 11 12 12 13 15 12 10 12 12 13 12 12 12 13
21 20 19 19 17 15 13 12 11 11 12 12 12 12 13 13 12 13 12 12 12 10 9 9 11 11 10 10 10 10 11 12 13 14 12 10 10 11 11 11 12 12 12
22 21 20 20 20 18 16 15 15 14 12 11 12 13 13 13 13 13 13 12 11 9 8 6 8 11 12 11 10 11 12 12 13 15 13 9 9 10 10 10 11 11 12
22 22 22 22 21 20 19 19 18 17 17 16 15 15 15 15 16 15 14 13 11 9 6 6 7 8 9 9 11 11 12 14 15 16 15 9 9 10 9 9 10 10 11
24 23 24 23 23 22 21 21 19 19 19 20 21 21 20 18 16 16 15 14 13 11 9 7 7 7 8 8 9 11 13 15 15 15 16 10 9 10 11 11 10 10 10
25 25 26 25 26 25 24 22 21 19 20 20 21 22 21 20 20 18 16 16 14 13 11 10 9 9 9 10 11 11 13 14 14 16 16 12 8 9 10 11 11 11 11
28 29 28 28 28 28 26 25 23 20 20 21 21 21 21 21 21 21 19 17 15 14 13 12 12 11 11 13 13 15 17 17 17 16 15 12 9 10 11 11 11 11 11
31 30 30 29 28 29 29 28 27 25 23 21 20 22 23 23 24 23 23 22 18 15 15 14 14 13 14 15 16 16 17 17 17 18 18 13 9 11 11 11 10 11 11
32 32 32 32 30 28 29 30 29 28 28 26 21 20 21 22 21 22 21 21 19 18 17 17 16 16 15 14 17 19 18 17 18 19 19 14 10 11 12 12 11 11 10
33 34 34 32 31 31 31 30 30 29 29 29 28 24 22 22 23 22 22 21 19 20 20 18 18 19 19 18 17 17 17 19 17 17 18 16 12 12 12 12 12 12 12
32 34 34 35 34 34 33 31 32 29 29 31 30 28 24 22 22 22 21 20 20 19 21 21 19 20 20 22 23 21 20 19 18 18 19 18 13 14 15 14 14 13 13
33 34 36 36 37 38 37 34 34 33 31 32 32 31 28 23 21 21 21 21 20 21 22 24 25 26 25 25 26 27 27 26 23 21 21 19 17 16 16 17 16 16 15
36 37 37 38 39 39 39 38 35 35 35 33 34 33 31 25 23 21 22 22 22 23 24 24 26 28 30 31 30 33 33 32 30 26 26 26 24 21 19 18 17 17 16
36 38 39 39 39 40 40 39 37 36 36 35 36 36 35 32 27 24 23 23 23 25 26 27 28 29 31 33 34 36 37 39 37 34 31 30 29 28 24 21 20 19 18
36 37 38 39 40 41 40 40 39 38 38 37 35 36 36 36 35 32 28 26 25 26 28 29 30 30 32 35 37 40 41 40 39 37 35 33 33 32 31 30 26 26 23
36 37 38 39 40 41 41 41 41 40 38 38 36 35 36 34 37 33 30 26 25 27 29 31 33 35 36 34 39 41 42 41 40 39 38 38 38 37 36 35 35 33 30
36 36 37 38 39 39 39 39 37 38 36 35 33 30 28 26 25 25 25 26 27 30 32 34 36 39 40 36 40 42 49 46 39 37 37 37 39 38 37 35 34 33 31
33 34 34 35 35 36 36 35 33 29 30 28 29 23 23 22 24 23 21 24 27 29 33 35 37 40 44 42 38 39 43 45 40 34 35 35 35 35 36 36 35 35 35
31 30 31 32 33 32 33 32 29 24 23 22 20 20 21 21 22 22 25 24 27 30 32 34 36 39 43 48 44 38 39 42 48 50 39 36 35 37 35 35 35 34 33
27 27 30 29 29 30 30 30 29 24 21 20 20 19 18 21 22 23 27 27 26 28 30 32 35 36 39 44 47 44 41 40 38 42 51 45 39 37 36 36 35 34 33
27 27 28 27 24 25 26 28 26 25 23 21 22 21 20 20 21 22 23 23 25 28 31 32 34 35 35 38 41 41 41 39 43 42 46 48 46 45 37 35 34 32 32
Wind_Direction
319 357 17 32 35 38 33 21 29 9 10 15 13 11 15 15 15 23 28 30 26 29 36 40 38 24 23 19 18 47 54 39 37 36 24 15 12 13 20 29 33 37 40
315 325 9 18 21 23 17 11 28 43 30 9 2 9 8 12 9 15 19 23 26 26 24 34 41 40 26 22 25 22 28 34 40 40 38 26 8 8 11 13 20 22 23
321 327 336 5 9 10 6 2 15 23 38 44 15 359 2 359 5 5 3 8 10 14 31 21 40 39 32 21 17 24 23 19 31 40 35 24 19 8 6 5 8 12 13
323 326 321 359 357 0 1 357 359 8 13 9 5 2 357 357 354 355 354 351 349 339 8 24 37 30 24 22 23 19 18 20 16 22 26 30 23 14 15 20 20 20 19
330 327 323 7 353 347 349 349 354 357 356 352 353 352 354 356 0 354 340 333 327 333 349 27 24 19 14 11 16 18 13 14 12 355 338 43 22 18 14 13 13 22 21
333 329 331 331 338 336 333 330 333 334 339 341 339 341 344 345 352 355 356 354 340 327 326 339 354 358 7 9 6 4 3 360 353 347 8 40 20 20 11 13 14 14 14
335 333 334 330 329 326 321 321 323 323 321 322 327 332 334 335 340 342 348 349 345 342 340 328 331 338 343 349 353 355 353 350 346 344 355 16 15 13 13 11 7 5 5
335 332 329 331 326 321 322 317 313 314 315 318 321 324 324 328 331 332 335 340 341 342 343 342 340 334 327 332 336 336 335 334 335 332 337 3 9 9 6 4 5 6 4
332 332 327 323 323 323 317 313 311 308 306 307 309 310 314 315 317 319 324 328 331 335 337 334 333 338 336 335 323 324 326 323 321 321 330 348 353 352 357 358 357 357 358
323 325 326 325 320 317 316 315 310 306 304 302 298 300 303 308 311 311 314 316 317 318 318 314 316 322 325 328 324 322 319 316 316 320 323 331 339 335 336 336 342 347 349
323 322 319 319 318 315 311 313 312 309 305 301 299 298 300 301 302 304 307 306 306 305 305 302 304 307 311 311 311 313 313 313 315 311 315 321 328 331 331 329 327 329 334
315 312 315 312 310 310 310 307 308 309 307 303 299 298 298 298 298 299 300 301 302 300 298 297 297 298 301 304 306 306 304 303 304 304 309 312 316 319 323 324 322 322 323
310 312 311 312 312 308 305 305 302 302 303 304 301 300 297 295 297 298 298 297 295 296 297 296 294 295 296 298 299 302 301 298 299 299 300 304 299 307 312 316 316 316 317
311 312 313 312 311 312 309 303 302 300 297 298 299 298 297 298 297 299 299 303 297 294 294 297 294 293 293 294 294 297 297 296 296 295 293 293 278 294 300 304 306 308 309
315 316 315 315 312 310 308 306 302 300 297 294 296 295 295 290 292 294 295 297 301 297 293 293 294 292 293 294 295 295 295 294 291 293 293 287 267 280 288 293 293 297 299
322 320 319 315 313 310 308 304 302 298 297 295 291 294 290 290 288 290 291 292 292 298 299 294 293 294 293 293 293 294 295 293 291 288 292 287 269 274 281 285 286 285 287
324 324 322 320 317 312 308 305 301 297 293 293 290 287 291 284 285 286 286 290 290 294 296 296 295 293 294 293 293 291 291 293 293 286 283 284 281 272 273 279 281 280 279
324 322 322 321 317 314 310 305 301 298 293 288 288 284 283 283 279 281 283 286 289 291 292 293 295 296 294 292 292 289 290 291 292 290 286 285 281 281 273 269 273 274 270
326 324 322 322 320 316 312 306 302 299 294 290 286 283 277 279 279 281 279 282 286 289 290 291 293 294 294 294 294 293 292 290 289 287 284 280 278 280 279 273 270 270 267
328 327 325 323 321 317 313 309 304 299 295 290 287 282 278 274 278 280 281 282 286 288 288 290 292 293 294 295 295 293 293 292 289 286 282 279 278 278 278 278 277 274 266
329 326 326 324 323 321 317 309 305 300 295 291 287 284 279 277 275 276 278 283 287 289 291 292 293 292 294 297 296 296 295 292 289 286 284 280 278 277 276 277 278 275 273
330 330 329 329 328 327 321 316 308 303 299 295 291 290 289 286 279 281 281 284 289 290 291 292 293 293 293 296 295 297 294 293 291 288 284 281 279 279 277 275 274 272 268
337 337 338 338 338 337 333 331 325 316 310 304 302 297 294 292 289 292 294 293 294 294 292 294 296 295 294 294 294 293 294 292 297 294 287 283 281 280 278 276 274 271 268
343 347 347 344 343 348 349 343 341 335 328 321 313 302 296 295 296 299 299 298 300 301 299 300 301 299 298 294 295 292 287 288 290 290 289 285 281 280 280 279 277 275 269
357 3 357 360 355 356 353 357 355 357 349 317 310 307 319 299 303 303 303 303 302 305 305 305 307 308 306 301 296 292 289 288 286 284 286 284 283 281 280 280 278 277 272
359 3 0 14 25 23 25 356 357 358 352 321 315 311 313 324 311 318 309 311 310 308 308 306 309 310 315 312 308 303 293 288 286 285 283 282 280 280 280 281 277 275 273